Location: De Greiden
(52.9496°N, 5.9137°E)
Time: 01:54:54
(UTC+00:00)

NOAA 15 - Pass Details

Date: 24 January 2021
Orbit: 798 x 812 km, 98.7° (Epoch: 26 February)

Event Time Altitude Azimuth Distance (km) Brightness Sun altitude
Rises 17:51:33 0° 156° (SSE) 3,300 7.7 -15.5°
Reaches altitude 10° 17:53:52 10° 155° (SSE) 2,375 6.9 -15.9°
Maximum altitude 17:59:06 76° 71° (ENE) 836 4.5 -16.6°
Drops below altitude 10° 18:04:24 10° 347° (NNW) 2,401 7.1 -17.4°
Sets 18:06:45 0° 346° (NNW) 3,339 7.9 -17.8°
